Weather in Krivorozhye

Russia / Rostov Oblast     48°50′58″N   40°45′52″E
temp.,
°C
wind,
m/s
gust,
m/s
humid.,
%
clouds,
%
prec.,
mm/h
press.,
hPa
HPBL,
m
19 september, sun
sun1900:00+13e5114792 0.0 1016229
03:00+12ese6125493 0.0 1016270
06:00+14ese61349100 0.0 1015408
09:00+18se81256100 0.0 1014756
12:00+22se101243100 0.0 10131388
15:00+22sse81240100 0.0 10111732
18:00+21se71249100 0.0 1011842
21:00+20s81355100 0.2 10111158
20 september, mon
mon2000:00+16s71593100 6.8 1010788
03:00+16sse61093100 17.6 1010729
06:00+16sse599582 0.4 1010352
09:00+19sse57735 1.5 1009563
12:00+23wsw684482 1.4 10091907
15:00+22wsw6844100 1.4 10101473
18:00+20wsw35455 0.0 1011108
21:00+17w22525 0.0 101211
21 september, tue
tue2100:00+16wsw345719 0.0 101399
03:00+14sw2263100 0.0 101323
06:00+14sw2468100 0.0 1013141
09:00+14wsw3466100 0.2 1014472
12:00+15sw3556100 0.0 1014596
15:00+17sw454878 0.0 10131349
18:00+16s115448 0.0 101315
21:00+15wnw2455100 0.0 1013195
22 september, wed
wed2200:00+14nw4662100 0.0 1014363
03:00+13wnw467029 0.0 1014421
06:00+9nw368641 0.0 1015212
09:00+12nw446012 0.0 1015742
12:00+15w334415 0.0 10151575
15:00+16w333970 0.0 10151838
18:00+14wnw454717 0.0 1015217
21:00+11nnw376053 0.0 1016194
23 september, thu
thu2300:00+10n366520 0.0 1015158
03:00+8n227012 0.0 101528
06:00+8nne2272100 0.0 101516
09:00+11w1159100 0.0 1014331
12:00+15wsw2346100 0.0 10141083
15:00+16s2341100 0.0 10131228
18:00+14se3450100 0.0 1013258
21:00+12ese3479100 0.4 1012242